(21821) Billryan = 1997 HL12 = 1999 TN36

Discovered at Anderson Mesa on 1999-10-12 by LONEOS.
(21821) Billryan = 1999 TN36

William H. Ryan (b. 1962) is an astrophysicist at the New Mexico Institute of Mining and Technology's Magdalena Ridge Observatory. Ryan discovered that (3782) Celle has a companion, making it the first identified binary vestoid; and later, that vestoid (3703) Volkonskaya is also binary. [Ref: Minor Planet Circ. 63394]

Orbit

Orbit type: Main Belt

Note: WebGL enabled browser required.

epoch2023-09-13.0
epoch JD2460200.5
perihelion date2020-07-30.07838
perihelion JD2459060.57838
argument of perihelion (°)306.64818
ascending node (°)127.57248
inclination (°)2.88515
eccentricity0.0889025
perihelion distance (AU)2.6771134
Tisserand w.r.t. Jupiter3.3
ΔV w.r.t. Earth (km/sec)10.3
semimajor axis (AU)2.9383393
mean anomaly (°)223.06217
mean daily motion (°/day)0.19568200
aphelion distance (AU)3.200
period (years)5.04
P-vector [x]0.27112724
P-vector [y]0.89840256
P-vector [z]0.34548930
Q-vector [x]-0.96171643
Q-vector [y]0.23796623
Q-vector [z]0.13591753
absolute magnitude14.85
phase slope0.15
uncertainty0
referenceMPO 776293
observations used1412
oppositions22
arc length (days)10976
first opposition used1992
last opposition used2022
residual rms (arc-secs)0.67
perturbers coarse indicatorM-v
perturbers precise indicator003Ek
first observation date used1992-05-07.0
last observation date used2022-05-26.0
computer nameMPCLINUX
JD of orbit computation2456966.725828
perihelion JD uncertainty (days)1.5269E-04
argument of perihelion uncertainty (°)9.8005E-05
ascending node uncertainty (°)9.2915E-05
inclination uncertainty (°)3.8213E-06
eccentricity uncertainty 3.2764E-08
perihelion distance uncertainty (AU)9.8406E-08
Minimum Orbit Intersection Distances (in AU)
for orbit epoch: 2460200.5, reference: E2023-VB5
Mercury2.37087
Venus1.95706
Earth1.69217
Mars1.10591
Jupiter2.01043
Saturn6.3605
Uranus15.4746
Neptune27.0331

Observations

1448 total observations over interval: 1992 05 07.31492 – 2022 05 26.346756
These data are available for download (format description).

Date (UT) J2000 RA J2000 Dec Magn Location Ref
1992 05 07.31492 14 48 05.30 -11 47 38.4 20.3 V 691 – Steward Observatory, Kitt Peak-Spacewatch MPS 79028
1992 05 07.34043 14 48 04.05 -11 47 33.1 20.4 V 691 – Steward Observatory, Kitt Peak-Spacewatch MPS 79028
1992 05 07.36540 14 48 02.81 -11 47 27.6 20.7 V 691 – Steward Observatory, Kitt Peak-Spacewatch MPS 79028
1993 07 13.21111 20 02 57.84 -19 33 06.7 18.6   809 – European Southern Observatory, La Silla MPS 13689
1993 07 13.22431 20 02 57.13 -19 33 09.3   809 – European Southern Observatory, La Silla MPS 13689
1993 07 13.23750 20 02 56.37 -19 33 12.5   809 – European Southern Observatory, La Silla MPS 13689
1993 07 19.32834 19 57 51.86 -19 52 29.2   691 – Steward Observatory, Kitt Peak-Spacewatch MPS 13689
1993 07 19.37642 19 57 48.89 -19 52 34.1 19.3 V 691 – Steward Observatory, Kitt Peak-Spacewatch MPS 13689
1995 11 27.49153 09 33 53.63 +14 01 33.9   691 – Steward Observatory, Kitt Peak-Spacewatch MPS 16531
1995 11 27.51315 09 33 54.28 +14 01 31.4 19.7 V 691 – Steward Observatory, Kitt Peak-Spacewatch MPS 16531
1995 11 27.53474 09 33 54.93 +14 01 29.3   691 – Steward Observatory, Kitt Peak-Spacewatch MPS 16531
1997 04 30.21800 14 40 16.19 -11 09 44.2 19.7   704 – Lincoln Laboratory ETS, New Mexico MPC 29846
1997 04 30.24028 14 40 14.98 -11 09 38.7 19.4   704 – Lincoln Laboratory ETS, New Mexico MPC 29846
1997 04 30.26285 14 40 13.77 -11 09 32.3 19.6   704 – Lincoln Laboratory ETS, New Mexico MPC 29846
1997 04 30.30783 14 40 11.60 -11 09 22.6 19.5   704 – Lincoln Laboratory ETS, New Mexico MPC 29846
1997 05 01.21920 14 39 27.98 -11 05 56.2 19.8   704 – Lincoln Laboratory ETS, New Mexico MPC 29846
1997 05 01.24163 14 39 26.85 -11 05 51.8 20.6   704 – Lincoln Laboratory ETS, New Mexico MPC 29846
1997 05 01.28652 14 39 24.65 -11 05 42.1 19.9   704 – Lincoln Laboratory ETS, New Mexico MPC 29846
1997 05 01.30907 14 39 23.41 -11 05 35.6 20.1   704 – Lincoln Laboratory ETS, New Mexico MPC 29846
1998 06 16.33385 20 06 43.12 -18 55 41.7 20.0 V 691 – Steward Observatory, Kitt Peak-Spacewatch MPS 13689
1998 06 16.35590 20 06 42.36 -18 55 44.6 19.7 V 691 – Steward Observatory, Kitt Peak-Spacewatch MPS 13689
1998 06 16.37812 20 06 41.80 -18 55 48.8 18.4 V 691 – Steward Observatory, Kitt Peak-Spacewatch MPS 13689
1999 10 03.34781 01 46 56.30 +06 29 38.4 18.5 R 703 – Catalina Sky Survey MPS 13689
1999 10 03.36016 01 46 55.65 +06 29 35.3 18.5 R 703 – Catalina Sky Survey MPS 13689
1999 10 03.37257 01 46 55.14 +06 29 31.8 18.7 R 703 – Catalina Sky Survey MPS 13689
1999 10 03.38479 01 46 54.59 +06 29 27.9 18.1 R 703 – Catalina Sky Survey MPS 13689
1999 10 04.30258 01 46 16.91 +06 25 03.2 18.3   704 – Lincoln Laboratory ETS, New Mexico MPS 13689
1999 10 04.32939 01 46 15.72 +06 24 54.2 18.9   704 – Lincoln Laboratory ETS, New Mexico MPS 13689
1999 10 04.35618 01 46 14.59 +06 24 47.2 19.1   704 – Lincoln Laboratory ETS, New Mexico MPS 13689
1999 10 07.36094 01 44 05.98 +06 10 03.9 18.0   704 – Lincoln Laboratory ETS, New Mexico MPS 13689
1999 10 07.37163 01 44 05.47 +06 10 00.1 18.9   704 – Lincoln Laboratory ETS, New Mexico MPS 13689
1999 10 07.38235 01 44 04.94 +06 09 58.3 18.5   704 – Lincoln Laboratory ETS, New Mexico MPS 13689
1999 10 07.39304 01 44 04.57 +06 09 53.7 18.9   704 – Lincoln Laboratory ETS, New Mexico MPS 13689
1999 10 07.40379 01 44 04.03 +06 09 51.0 19.0   704 – Lincoln Laboratory ETS, New Mexico MPS 13689
1999 10 09.28816 01 42 40.33 +06 00 29.9 18.5   704 – Lincoln Laboratory ETS, New Mexico MPS 13689
1999 10 09.30146 01 42 39.70 +06 00 25.7 18.3   704 – Lincoln Laboratory ETS, New Mexico MPS 13689
1999 10 09.31450 01 42 39.08 +06 00 21.9 18.5   704 – Lincoln Laboratory ETS, New Mexico MPS 13689
1999 10 09.32782 01 42 38.46 +06 00 17.7 18.6   704 – Lincoln Laboratory ETS, New Mexico MPS 13689
1999 10 09.34129 01 42 37.84 +06 00 13.7 18.2   704 – Lincoln Laboratory ETS, New Mexico MPS 13689
1999 10 11.24814 01 41 10.99 +05 50 40.5 18.4   704 – Lincoln Laboratory ETS, New Mexico MPS 13689
1999 10 11.25718 01 41 10.53 +05 50 38.2 18.9   704 – Lincoln Laboratory ETS, New Mexico MPS 13689
1999 10 11.26645 01 41 10.12 +05 50 34.8 18.7   704 – Lincoln Laboratory ETS, New Mexico MPS 13689
1999 10 11.27551 01 41 09.70 +05 50 32.2 18.6   704 – Lincoln Laboratory ETS, New Mexico MPS 13689
1999 10 11.28459 01 41 09.24 +05 50 29.7 18.6   704 – Lincoln Laboratory ETS, New Mexico MPS 13689
1999 10 12.29093 01 40 22.59 +05 45 25.9 18.3 R 699 – Lowell Observatory-LONEOS MPS 12025
1999 10 12.32150 01 40 21.17 +05 45 18.8   699 – Lowell Observatory-LONEOS MPS 12025
1999 10 12.35209 01 40 19.72 +05 45 09.4   699 – Lowell Observatory-LONEOS MPS 12025
1999 10 13.20418 01 39 40.17 +05 40 52.1 18.7 R 699 – Lowell Observatory-LONEOS MPS 12025
1999 10 13.23470 01 39 38.63 +05 40 42.7   699 – Lowell Observatory-LONEOS MPS 12025
1999 10 13.26525 01 39 37.09 +05 40 33.8   699 – Lowell Observatory-LONEOS MPS 12025
1999 10 15.26022 01 38 03.11 +05 30 34.1 18.5   704 – Lincoln Laboratory ETS, New Mexico MPS 13689
1999 10 15.27733 01 38 02.25 +05 30 28.8 18.3   704 – Lincoln Laboratory ETS, New Mexico MPS 13689
1999 10 15.29356 01 38 01.49 +05 30 24.1 18.7   704 – Lincoln Laboratory ETS, New Mexico MPS 13689
1999 10 15.31064 01 38 00.66 +05 30 19.0 18.4   704 – Lincoln Laboratory ETS, New Mexico MPS 13689
1999 10 15.32655 01 37 59.79 +05 30 14.4 18.6   704 – Lincoln Laboratory ETS, New Mexico MPS 13689
1999 10 19.19534 01 34 55.47 +05 11 08.1 18.5   704 – Lincoln Laboratory ETS, New Mexico MPS 13689
1999 10 19.20910 01 34 54.82 +05 11 03.8 18.3   704 – Lincoln Laboratory ETS, New Mexico MPS 13689
1999 10 19.22283 01 34 54.16 +05 10 59.2 18.1   704 – Lincoln Laboratory ETS, New Mexico MPS 13689
1999 10 19.23664 01 34 53.46 +05 10 54.8 18.1   704 – Lincoln Laboratory ETS, New Mexico MPS 13689
1999 10 19.25043 01 34 52.78 +05 10 50.9 18.1   704 – Lincoln Laboratory ETS, New Mexico MPS 13689
1999 11 01.20693 01 24 54.81 +04 13 21.2 18.1 R 703 – Catalina Sky Survey MPS 13689
1999 11 01.21901 01 24 54.26 +04 13 17.4 19.0 R 703 – Catalina Sky Survey MPS 13689
1999 11 01.23103 01 24 53.72 +04 13 15.3 18.2 R 703 – Catalina Sky Survey MPS 13689
1999 11 01.24302 01 24 53.12 +04 13 12.8 18.1 R 703 – Catalina Sky Survey MPS 13689
1999 11 06.15470 01 21 32.00 +03 55 38.1 19.0   704 – Lincoln Laboratory ETS, New Mexico MPS 13689
1999 11 06.17101 01 21 31.36 +03 55 34.7 19.5   704 – Lincoln Laboratory ETS, New Mexico MPS 13689
1999 11 06.18734 01 21 30.64 +03 55 31.7 19.6   704 – Lincoln Laboratory ETS, New Mexico MPS 13689
1999 11 06.20369 01 21 29.93 +03 55 27.4 19.6   704 – Lincoln Laboratory ETS, New Mexico MPS 13689
1999 11 06.21999 01 21 29.27 +03 55 24.9 19.3   704 – Lincoln Laboratory ETS, New Mexico MPS 13689
1999 11 07.16397 01 20 53.29 +03 52 24.0 19.0   704 – Lincoln Laboratory ETS, New Mexico MPS 13689
1999 11 07.17998 01 20 52.59 +03 52 21.7 19.3   704 – Lincoln Laboratory ETS, New Mexico MPS 13689
1999 11 07.19596 01 20 51.96 +03 52 18.9 19.2   704 – Lincoln Laboratory ETS, New Mexico MPS 13689
1999 11 07.21202 01 20 51.40 +03 52 15.8 18.8   704 – Lincoln Laboratory ETS, New Mexico MPS 13689
1999 11 15.14921 01 16 26.17 +03 31 57.4 19.0   704 – Lincoln Laboratory ETS, New Mexico MPS 13689
1999 11 15.16508 01 16 25.67 +03 31 56.2 19.0   704 – Lincoln Laboratory ETS, New Mexico MPS 13690
1999 11 15.17945 01 16 25.22 +03 31 53.0 19.5   704 – Lincoln Laboratory ETS, New Mexico MPS 13690
1999 11 15.19397 01 16 24.85 +03 31 51.0 19.5   704 – Lincoln Laboratory ETS, New Mexico MPS 13690
1999 11 15.20835 01 16 24.33 +03 31 50.4 19.4   704 – Lincoln Laboratory ETS, New Mexico MPS 13690
2001 01 03.37748 09 19 51.15 +15 26 30.3 19.0   704 – Lincoln Laboratory ETS, New Mexico MPS 23693
2001 01 03.39264 09 19 50.65 +15 26 32.9 19.5   704 – Lincoln Laboratory ETS, New Mexico MPS 23693
